Location: Wiler
(46.4041°N, 7.7840°E)
Time: 23:31:45
(UTC+00:00)

Cosmos 1697 Rocket - Pass Details

Date: 09 April 2020
Orbit: 831 x 845 km, 71.0° (Epoch: 24 May)

Event Time Altitude Azimuth Distance (km) Brightness Sun altitude
Rises 19:22:46 0° 340° (NNW) 3,412 6.6 -12.8°
Reaches altitude 10° 19:25:56 10° 357° (N) 2,475 5.5 -13.3°
Maximum altitude 19:30:01 20° 43° (NE) 1,872 4.4 -13.9°
Enters shadow 19:33:03 14° 81° (E) 2,224 4.4 -14.4°
